SKYSAT-C14 (45788 NORAD) Tracking and Keplerian Element Data

This shows tracking and keplerian element data for the satellite.

Feedback or suggestion? Click here.




ElementValue
Catalog45788
NameSKYSAT-C14
Epoch Orbit430
Epoch Day191.53332967
Epoch Year2020
RAAN168.2511
Inclination52.9996
Eccentricity0.0010118
Argument of Perigee203.0208
Mean Anonmoly157.0351
Mean Motion15.59052567
Decay Rate1.836E-05
L11 45788U 20038BL 20191.53332967 .00001836 00000-0 29586-4 0 9998
L22 45788 52.9996 168.2511 0010118 203.0208 157.0351 15.59052567 4308

Live tracking and technical data element details for SKYSAT-C14 (NORAD 45788). SKYSAT-C14 can be tracked NOW for your location showing map with azimuth and elevation plus other details from your city location.

Track the satellite on the map from your city or location and see movement details for azimuth, elevation, latitude, longitude, range, height, and movement on the map or in text.







IsCatalogInMostPopularTable: catalog: 45788, numindb: 4
Update: records affected: 1



GetName: 45788 SKYSAT-C14

Hit Count: updated at: Fri, 10 Jul 2020 15:42:07 GMT